Wind_Speed
38 38 37 36 35 35 36 36 37 35 34 33 34 35 35 36 36 36 36 36 37 38 39 39 40 41 42 42 43 44 43 43 42 42 42 42 42 42 43 43 43 43 42 42
39 38 39 39 37 36 36 36 36 35 34 32 34 35 35 35 36 36 36 36 37 38 39 40 41 41 42 42 42 42 42 42 41 41 42 42 42 42 43 42 42 42 41 40
40 38 40 39 35 35 36 35 35 35 33 33 34 35 36 36 36 37 37 37 37 38 39 39 40 41 42 42 42 42 42 41 41 41 42 42 42 43 42 41 41 40 39 38
39 39 42 38 35 35 36 35 35 35 34 35 35 35 35 36 37 37 37 38 38 38 38 39 40 41 41 42 42 42 41 40 41 41 41 42 41 41 40 39 39 38 37 36
39 40 41 37 35 35 36 36 35 35 34 35 35 35 34 35 36 37 38 38 38 39 38 39 40 40 40 41 41 41 40 40 40 41 41 40 40 39 38 37 36 35 33 32
40 41 40 36 35 36 37 37 34 35 34 34 35 35 33 34 36 37 38 38 38 38 38 38 39 39 40 40 39 39 38 39 39 40 39 39 38 37 35 34 33 32 32 30
40 40 39 36 35 36 37 36 35 35 34 34 34 34 34 35 36 37 37 37 38 38 38 38 39 38 38 38 37 37 37 37 38 38 37 37 36 35 33 33 31 30 29 26
39 40 38 35 36 36 36 35 35 35 34 34 34 34 35 35 36 36 36 37 37 37 37 38 38 37 37 36 36 35 36 36 36 35 35 34 34 32 32 31 29 27 25 23
37 38 36 36 36 36 36 35 34 34 34 34 34 35 35 35 35 36 36 36 36 36 36 37 36 36 36 35 34 34 34 34 33 32 32 31 31 30 30 29 26 24 22 21
37 36 36 36 36 35 35 36 35 34 33 34 35 35 35 35 36 36 36 36 36 36 36 36 36 36 35 34 34 33 33 32 32 31 31 30 29 29 28 26 24 22 21 19
36 35 36 36 36 36 37 37 36 35 35 35 36 36 36 36 37 37 37 36 36 36 36 35 35 35 34 33 33 32 31 31 30 30 29 29 28 27 25 24 23 22 19 17
33 32 33 34 35 36 37 37 36 36 36 36 36 36 36 37 37 37 37 36 36 36 35 34 34 33 33 33 32 32 30 30 29 29 29 29 28 25 24 23 22 20 18 16
32 32 32 32 33 35 36 37 36 36 35 35 36 37 37 37 37 36 36 36 35 34 33 32 32 32 32 31 31 30 29 30 30 30 29 28 25 23 22 21 20 19 16 15
32 32 32 32 31 32 33 34 35 35 35 36 37 37 37 36 36 36 36 35 34 32 32 32 31 31 30 30 30 30 30 30 29 28 26 24 23 22 21 20 18 17 15 13
29 31 31 31 31 31 32 33 34 35 35 35 36 36 36 35 35 35 35 33 32 31 31 30 29 29 28 29 29 30 29 28 26 25 23 23 22 21 20 19 16 14 13 11
27 28 29 29 29 30 31 33 33 33 34 34 33 33 33 33 33 32 32 31 30 30 30 29 28 28 28 28 28 27 26 24 23 22 21 21 21 20 18 16 14 12 11 11
25 25 27 28 29 30 30 31 31 31 31 31 31 31 31 30 30 29 29 29 29 29 28 28 28 28 27 27 26 25 24 22 21 20 20 20 19 17 15 13 11 10 10 10
24 25 26 26 27 28 29 30 30 29 28 27 27 27 27 26 26 26 27 27 27 27 27 27 26 25 25 24 23 23 22 21 20 20 19 18 17 15 12 11 10 9 8 9
24 24 24 24 25 25 26 26 27 26 26 25 25 24 24 24 25 26 26 26 26 26 25 25 24 23 23 23 22 21 20 20 19 19 17 16 14 13 10 9 8 8 8 8
23 23 22 22 22 23 23 23 24 24 24 24 24 24 24 24 25 25 25 25 25 24 23 23 22 22 22 21 20 20 20 19 18 16 14 13 11 9 8 7 7 7 7 7
21 21 21 21 21 21 22 22 22 23 23 23 23 23 23 23 23 23 22 22 23 23 22 22 21 21 20 19 19 19 19 18 15 13 12 11 10 9 8 7 7 6 7 7
20 20 20 20 19 19 20 20 21 22 22 22 22 21 21 21 21 20 21 21 21 21 21 21 21 20 20 20 19 18 17 16 14 13 12 11 10 9 8 8 7 7 7 7
17 18 18 18 19 19 19 19 19 20 20 20 20 20 20 20 20 20 21 21 20 20 21 20 21 21 20 20 18 17 16 15 14 13 12 11 10 9 8 8 7 7 8 9
18 18 19 19 19 19 19 18 18 19 19 20 20 20 20 20 21 21 21 20 20 20 20 20 20 20 19 18 17 16 15 14 13 12 12 11 10 9 8 7 7 8 10 10
19 19 19 19 19 19 19 19 19 19 19 20 20 20 20 20 21 21 21 21 20 20 20 20 20 19 17 16 15 14 14 13 12 11 11 11 10 9 8 8 8 9 10 10
19 20 20 20 20 19 19 19 19 19 19 19 20 20 21 21 20 20 21 21 21 21 21 19 18 17 16 14 14 13 12 12 11 10 9 9 9 8 7 7 8 9 10 11
19 20 20 20 20 19 19 18 18 18 18 19 19 20 20 19 19 19 19 19 20 19 18 17 16 15 14 13 13 12 11 10 10 9 8 8 8 8 7 8 8 9 10 11
Wind_Direction
252 254 257 258 260 262 264 267 271 275 278 282 284 284 287 290 292 294 293 292 293 293 295 295 295 296 297 298 298 299 299 299 299 300 301 302 301 299 297 296 297 295 292 289
252 254 256 258 259 262 265 268 272 275 278 281 281 282 284 288 291 293 293 293 294 295 295 295 296 297 298 299 299 300 300 300 299 300 302 302 302 301 299 297 297 297 294 290
253 254 257 258 260 262 265 268 272 275 278 278 279 280 284 287 290 292 292 293 295 296 296 295 296 297 299 300 301 300 300 300 300 300 302 302 301 302 301 298 298 298 295 292
254 254 256 258 259 262 264 267 270 273 276 278 280 281 283 286 289 290 292 294 295 295 295 295 296 298 299 300 301 301 299 299 300 301 302 302 302 302 300 299 299 298 295 292
253 256 258 257 259 262 264 265 268 272 275 277 279 281 283 286 288 290 292 293 293 294 294 295 296 298 299 299 300 300 300 300 301 302 303 303 302 302 300 300 299 298 295 292
253 256 260 260 260 261 263 265 267 271 274 277 278 281 284 286 287 289 290 290 291 293 294 295 297 298 299 299 299 299 300 301 302 303 304 304 303 302 300 300 299 298 297 292
254 258 260 261 262 262 264 267 269 271 273 276 278 281 284 286 288 289 290 291 291 292 293 294 296 297 298 299 299 299 300 302 304 304 304 304 304 302 300 300 299 298 296 291
255 258 260 263 263 263 265 267 269 270 272 275 278 281 283 285 287 289 290 291 291 292 294 295 296 297 297 298 299 299 301 302 304 305 305 306 305 304 303 301 298 296 293 289
254 256 259 261 262 262 263 264 267 270 274 276 278 281 284 286 288 290 292 292 293 294 295 297 297 297 296 297 298 299 301 302 303 304 306 305 304 304 304 302 299 295 294 293
254 255 256 258 259 261 262 263 265 269 272 275 278 281 284 285 288 291 293 294 294 295 296 297 296 296 297 297 298 300 301 302 303 303 304 305 304 305 304 301 298 296 296 294
254 255 256 256 259 261 263 263 264 268 271 274 276 279 282 284 287 290 292 293 293 294 295 296 295 294 295 296 298 299 300 302 303 302 303 305 305 304 302 300 299 298 295 288
254 255 256 256 257 260 262 263 264 267 269 273 276 278 280 282 285 288 290 291 292 292 293 294 295 294 294 295 297 298 299 301 302 301 302 304 304 303 302 302 300 298 294 287
253 253 254 256 258 259 261 261 262 265 268 271 274 276 278 280 283 285 288 289 290 291 292 294 295 294 294 295 297 298 301 301 301 301 302 303 303 303 301 300 298 294 288 281
254 255 255 256 258 260 261 261 264 267 270 272 274 275 277 279 281 283 285 287 289 290 292 294 295 295 294 295 297 299 300 301 301 300 301 302 303 303 304 301 296 289 282 276
257 257 257 258 261 263 265 266 267 270 272 275 276 276 277 278 280 283 284 285 287 289 292 295 295 295 295 297 298 300 300 300 301 301 300 301 302 302 302 300 296 287 275 266
257 258 259 261 263 265 267 268 269 271 274 275 276 276 277 279 281 283 284 285 288 291 293 294 295 295 296 297 299 300 300 301 300 299 299 301 302 301 299 296 290 280 268 256
257 259 261 262 264 265 267 267 268 271 273 274 275 275 277 279 281 283 285 287 290 291 292 293 294 295 296 297 298 299 299 299 298 299 302 303 303 301 297 293 284 271 262 250
260 262 264 265 264 264 266 267 268 270 272 274 276 276 277 278 280 283 286 287 289 291 291 291 293 294 295 295 296 296 296 296 298 300 302 303 301 298 292 286 279 266 253 243
261 264 266 267 266 266 267 267 267 268 271 274 276 276 278 279 281 284 286 287 289 290 291 291 292 293 295 295 296 296 296 297 298 297 297 298 298 294 287 282 278 265 249 240
263 265 266 266 267 267 267 267 268 269 271 274 276 277 279 281 284 285 285 287 288 289 289 289 290 292 295 296 297 296 294 296 297 296 295 295 297 295 290 284 278 261 242 238
263 264 265 266 268 269 270 270 270 271 273 275 277 278 279 282 285 285 285 287 289 290 289 290 290 291 292 294 295 295 293 292 291 290 291 291 290 289 287 282 276 258 236 228
260 262 263 264 266 269 272 272 273 273 275 277 278 279 281 283 285 285 286 287 288 288 288 289 289 290 291 292 292 293 292 288 284 282 281 283 282 279 277 275 268 244 219 211
257 259 261 262 265 269 271 273 275 275 275 277 279 280 281 283 285 286 286 286 287 287 287 287 289 289 288 288 289 288 286 283 280 279 277 276 273 270 268 264 249 223 207 202
259 260 262 264 267 268 270 273 276 277 277 277 279 279 280 281 284 285 285 285 285 286 286 287 288 286 284 283 283 283 280 279 278 276 274 271 266 262 258 252 237 215 203 202
262 263 264 265 268 269 270 272 275 277 278 277 277 277 279 282 284 285 285 286 285 285 285 285 284 282 280 279 277 277 277 279 277 272 268 264 258 255 253 244 228 211 204 201
263 261 261 263 266 269 270 271 272 274 277 277 277 279 282 284 286 287 287 286 287 287 286 283 280 278 276 275 273 274 277 277 274 268 262 255 249 249 243 230 214 204 200 198
265 264 263 263 264 266 268 269 270 273 276 278 279 280 282 284 285 287 289 289 288 288 285 282 278 273 271 270 270 270 272 272 267 257 250 244 240 239 233 221 208 199 196 193
Height
5607 5608 5609 5611 5613 5614 5614 5615 5616 5617 5616 5616 5612 5609 5607 5604 5602 5599 5596 5592 5588 5584 5580 5576 5572 5568 5563 5558 5553 5548 5543 5538 5534 5529 5524 5519 5514 5510 5506 5501 5497 5492 5488 5484
5596 5598 5598 5599 5603 5604 5605 5605 5606 5606 5607 5607 5602 5599 5597 5595 5592 5589 5586 5583 5579 5574 5570 5566 5561 5557 5552 5547 5542 5537 5532 5528 5523 5518 5514 5509 5504 5499 5495 5490 5486 5481 5477 5472
5585 5587 5586 5589 5595 5595 5595 5597 5596 5596 5598 5595 5592 5590 5588 5585 5583 5579 5576 5573 5569 5565 5560 5555 5551 5546 5542 5537 5532 5527 5522 5518 5513 5508 5504 5499 5494 5489 5484 5480 5475 5471 5466 5461
5573 5575 5575 5585 5586 5585 5585 5586 5586 5586 5586 5584 5582 5580 5578 5576 5573 5570 5566 5563 5559 5555 5550 5546 5541 5537 5532 5527 5522 5517 5512 5508 5504 5499 5494 5489 5484 5479 5475 5470 5466 5461 5456 5452
5562 5562 5565 5573 5576 5575 5574 5576 5577 5576 5576 5574 5572 5571 5570 5567 5563 5560 5556 5552 5549 5545 5540 5536 5532 5527 5523 5518 5513 5508 5503 5498 5494 5489 5484 5479 5475 5470 5466 5461 5457 5452 5448 5444
5551 5552 5555 5564 5565 5564 5564 5565 5567 5566 5565 5564 5562 5561 5561 5557 5554 5550 5547 5543 5539 5535 5531 5527 5523 5518 5513 5508 5503 5498 5494 5489 5484 5479 5475 5470 5466 5461 5457 5453 5449 5445 5441 5437
5540 5541 5545 5551 5552 5552 5554 5556 5556 5555 5554 5554 5552 5551 5549 5546 5544 5540 5537 5533 5529 5526 5522 5518 5513 5509 5504 5499 5495 5490 5486 5481 5476 5471 5466 5461 5457 5453 5449 5445 5441 5437 5434 5431
5530 5531 5538 5540 5540 5541 5542 5543 5544 5543 5543 5543 5542 5541 5539 5537 5534 5531 5528 5524 5520 5516 5512 5508 5504 5500 5495 5491 5487 5482 5478 5473 5468 5463 5458 5453 5449 5446 5442 5438 5434 5431 5428 5426
5520 5524 5526 5527 5528 5529 5530 5532 5532 5533 5533 5533 5532 5531 5529 5526 5524 5521 5518 5515 5511 5507 5503 5500 5495 5491 5486 5482 5478 5474 5470 5465 5461 5456 5451 5447 5443 5439 5435 5432 5428 5425 5423 5421
5509 5512 5515 5516 5517 5518 5520 5521 5522 5522 5522 5522 5521 5520 5519 5516 5514 5511 5508 5505 5501 5498 5494 5491 5486 5482 5478 5474 5470 5466 5462 5458 5454 5450 5446 5441 5437 5433 5429 5426 5423 5421 5418 5417
5498 5502 5503 5505 5507 5508 5509 5510 5511 5512 5512 5511 5510 5510 5508 5506 5504 5502 5499 5496 5492 5489 5485 5481 5477 5473 5470 5466 5462 5458 5455 5451 5447 5443 5440 5436 5432 5427 5424 5421 5417 5416 5414 5412
5489 5491 5493 5495 5496 5497 5498 5499 5501 5501 5501 5500 5500 5499 5498 5496 5494 5492 5489 5486 5483 5480 5476 5472 5469 5465 5461 5458 5454 5451 5448 5444 5441 5437 5433 5429 5426 5422 5418 5415 5413 5410 5409 5408
5479 5481 5482 5484 5486 5487 5488 5489 5490 5490 5490 5490 5489 5488 5487 5486 5484 5482 5479 5477 5474 5471 5467 5464 5460 5457 5453 5450 5447 5443 5440 5437 5434 5430 5426 5423 5419 5417 5414 5412 5408 5406 5404 5403
5470 5472 5473 5475 5476 5477 5478 5478 5479 5479 5479 5479 5478 5477 5476 5475 5474 5472 5469 5467 5465 5462 5459 5456 5452 5449 5446 5442 5439 5436 5433 5430 5426 5423 5420 5416 5414 5411 5408 5406 5404 5402 5400 5400
5461 5462 5464 5465 5466 5467 5468 5468 5469 5469 5469 5468 5467 5466 5466 5465 5463 5461 5459 5457 5455 5453 5450 5447 5445 5442 5438 5435 5432 5429 5425 5422 5419 5416 5413 5411 5408 5405 5403 5400 5399 5398 5397 5396
5452 5453 5454 5456 5457 5458 5458 5458 5458 5459 5458 5458 5457 5456 5455 5454 5453 5451 5449 5448 5446 5444 5442 5439 5437 5434 5431 5428 5425 5422 5419 5416 5413 5410 5408 5405 5402 5399 5397 5395 5394 5393 5393 5393
5444 5445 5446 5447 5448 5448 5448 5449 5449 5449 5449 5448 5448 5447 5446 5444 5443 5442 5440 5439 5437 5435 5433 5431 5429 5426 5423 5420 5418 5415 5413 5410 5407 5405 5402 5400 5397 5394 5392 5391 5390 5389 5390 5390
5436 5437 5438 5438 5439 5440 5440 5440 5440 5440 5440 5439 5438 5437 5437 5436 5435 5433 5432 5430 5429 5427 5425 5423 5421 5418 5416 5414 5411 5409 5407 5404 5402 5399 5397 5395 5392 5390 5388 5387 5386 5386 5386 5387
5428 5429 5430 5430 5431 5431 5431 5432 5432 5431 5431 5431 5430 5429 5429 5428 5427 5425 5424 5422 5420 5419 5417 5415 5413 5412 5409 5407 5405 5403 5401 5399 5396 5394 5392 5390 5388 5386 5385 5384 5383 5383 5383 5384
5421 5422 5422 5422 5423 5423 5423 5423 5423 5424 5423 5423 5422 5422 5421 5420 5418 5417 5416 5414 5413 5411 5410 5408 5407 5405 5403 5401 5399 5397 5395 5393 5391 5389 5388 5386 5385 5383 5382 5381 5381 5380 5381 5381
5414 5414 5415 5415 5416 5416 5416 5416 5416 5416 5416 5415 5415 5414 5413 5412 5411 5410 5408 5407 5406 5404 5403 5402 5400 5399 5397 5395 5393 5391 5389 5388 5386 5385 5384 5382 5381 5380 5379 5379 5378 5378 5378 5378
5407 5408 5408 5409 5409 5409 5409 5409 5409 5409 5409 5408 5408 5407 5406 5405 5404 5403 5402 5401 5400 5398 5397 5395 5394 5392 5391 5389 5387 5386 5384 5383 5382 5381 5380 5379 5378 5377 5376 5376 5375 5375 5376 5376
5401 5401 5402 5402 5403 5403 5403 5403 5402 5402 5402 5401 5401 5400 5399 5398 5398 5397 5396 5395 5393 5392 5390 5389 5388 5386 5384 5383 5381 5380 5379 5378 5377 5376 5375 5375 5374 5373 5373 5373 5372 5373 5374 5375
5395 5395 5396 5396 5397 5397 5397 5396 5396 5396 5395 5395 5394 5394 5393 5392 5391 5390 5389 5388 5387 5385 5384 5382 5381 5379 5378 5377 5376 5375 5374 5373 5372 5372 5371 5371 5370 5370 5370 5370 5370 5370 5372 5373
5389 5389 5389 5390 5390 5390 5390 5390 5390 5389 5389 5388 5388 5387 5387 5386 5385 5384 5382 5381 5380 5378 5377 5376 5374 5373 5372 5371 5370 5369 5368 5368 5368 5367 5367 5367 5366 5366 5366 5366 5367 5368 5370 5372
5383 5383 5383 5383 5384 5384 5384 5384 5383 5383 5382 5382 5382 5381 5380 5379 5378 5377 5376 5374 5373 5371 5370 5368 5367 5366 5366 5365 5364 5364 5364 5363 5363 5363 5363 5363 5363 5363 5363 5364 5365 5366 5368 5370
5376 5376 5377 5377 5377 5377 5377 5377 5377 5377 5376 5376 5375 5375 5374 5373 5371 5370 5369 5368 5366 5365 5363 5362 5361 5360 5360 5360 5359 5359 5359 5359 5359 5359 5359 5360 5360 5361 5361 5362 5363 5364 5366 5368